User: anonymous   Login
Location: Habighorst
(52.7089°N, 10.2278°E)
Time: 04:26:56
(UTC+00:00)
Language:

Cosmos 1943 Rocket - Orbit

View from above orbital plane
View from above orbital plane
View from above satellite
View from above satellite

Ground track
Ground track

The orbit is defined by the following mean orbital elements,

1 19120U          26067.00735073 +.00000000 +00000-0 -48698-4 0 00002
2 19120  71.0132  72.1050 0022689 336.7891  23.2208 14.19615475    08
Epoch (UTC): 08 March 2026 00:10:35
Eccentricity: 0.0022689
inclination: 71.0132°
perigee height: 810 km
apogee height: 843 km
right ascension of ascending node: 72.1050°
argument of perigee: 336.7891°
revolutions per day: 14.19615475
mean anomaly at epoch: 23.2208°

The dashed part of the orbit path shows where the satellite is in the earth's shadow,  

DLR